Regional Weather Roundup
Issued by NWS

Home | Current Version | Previous Version | Text Only | Print | Product List | Glossary Off
Versions: 1 2 3 4 5 6 7 8 9 10 11 12 13 14 15 16 17 18 19 20 21 22 23 24 25 26 27 28 29 30 31 32 33 34 35 36 37 38 39 40 41 42 43 44 45 46 47 48 49 50

000
ASUS45 KTFX 250810
RWRMT
MONTANA REGIONAL WEATHER ROUNDUP
NATIONAL WEATHER SERVICE GREAT FALLS MT
200 AM MDT FRI MAY 25 2018

NOTE: "FAIR" INDICATES FEW OR NO CLOUDS BELOW 12000 FEET WITH NO
SIGNIFICANT WEATHER AND/OR OBSTRUCTIONS TO VISIBILITY.

MTZ001>007-043-250900-
WEST OF THE DIVIDE

CITY           SKY/WX    TMP DP  RH WIND       PRES   REMARKS
KALISPELL      FAIR      49  49 100 CALM      29.98R
MISSOULA       FAIR      55  48  77 CALM      30.01S
BUTTE          FAIR      47  43  86 SE6       30.12F
MULLAN PASS    FAIR      52  49  89 SW3       30.11F
ANACONDA         N/A     52  43  71 S3        30.09F
DEER LODGE       N/A     50  46  87 SW3       30.09F
HAMILTON         N/A     57  46  67 MISG      30.04S
RONAN            N/A     50  48  93 SE3       30.00S
$$

MTZ008-052>055-250900-
SOUTHWEST MONTANA

CITY           SKY/WX    TMP DP  RH WIND       PRES   REMARKS
BOZEMAN        FAIR      50  46  86 E3        30.06S
DILLON         FAIR      50  46  86 SW8       30.10S
ENNIS          CLEAR     52  45  76 S9        30.15S
W YELLOWSTONE  CLOUDY    39  41 100 CALM      30.19S
$$

MTZ009-010-012-014-046-048-049-054-250900-
EAST SLOPES AND CENTRAL MONTANA

CITY           SKY/WX    TMP DP  RH WIND       PRES   REMARKS
CUT BANK       FAIR      60  45  57 W17       29.91S
GREAT FALLS    FAIR      56  45  66 SW13      29.95S
MALMSTROM AFB  FAIR      52  46  78 S9        29.94S
HELENA         FAIR      57  47  69 S3        30.01R
CHOTEAU          N/A     57  43  58 SW8       29.95F
ULM            FAIR      51  46  82 S9        29.95F
WHITE SULPHUR    N/A     59  43  55 W12       30.04S
$$

MTZ011-013-016-021-045-047-050-051-250900-
NORTH CENTRAL MONTANA

CITY           SKY/WX    TMP DP  RH WIND       PRES   REMARKS
HAVRE          FAIR      63  47  55 SW17      29.83S
LEWISTOWN      FAIR      54  45  71 SW13      29.97S
N BAR RANCH    FAIR      50  45  81 W5        30.01S
CHINOOK          N/A     66  46  48 MISG      29.81
$$

MTZ017>020-022>027-061-062-250900-
NORTHEAST MONTANA

CITY           SKY/WX    TMP DP  RH WIND       PRES   REMARKS
GLASGOW        FAIR      66  51  58 W6        29.76S
GLENDIVE       FAIR      56  53  90 S7        29.82F
JORDAN           N/A     57  53  86 NW6       29.84S
MALTA          CLEAR     59  48  67 W9        29.77S
SIDNEY         FAIR      58  55  90 S3        29.77S
WOLF POINT     FAIR      54  52  93 W3        29.76S
PLENTYWOOD       N/A     63  54  72 CALM      29.73F
POPLAR           N/A     61  54  77 SW5       29.76S
$$

MTZ028>42-056>058-250900-
SOUTHCENTRAL AND SOUTHEAST MONTANA

CITY           SKY/WX    TMP DP  RH WIND       PRES   REMARKS
BAKER          FAIR      58  54  86 W7        29.88S
BILLINGS       FAIR      61  49  64 SW12      29.97R
LIVINGSTON     FAIR      60  46  59 SW14      30.04S
MILES CITY     FAIR      61  56  83 W6        29.86S
BIG TIMBER     CLEAR     59  46  63 W14       30.04S
LAUREL           N/A     54  48  82 NW5       29.98S
$$

REGIONAL REPORTS...DAKOTAS

CITY           SKY/WX    TMP DP  RH WIND       PRES   REMARKS
WILLISTON      FAIR      62  56  80 SW8       29.75R
MINOT          FAIR      66  55  67 SW9       29.70S
DICKINSON      FAIR      58  52  80 SW9       29.80F
BEACH          FAIR      61  57  88 W9        29.86F
CROSBY         FAIR      57  57 100 S9        29.72S
TIOGA          FAIR      57  57 100 SW6       29.76F
WATFORD CITY   FAIR      57  57 100 W5        29.76S
BISMARCK       FAIR      63  55  75 W5        29.78S
GRAND FORKS    FAIR      66  56  70 SW10      29.66F
FARGO          FAIR      66  56  70 SW7       29.71S
BUFFALO SD       N/A     61  50  67 W10       29.83S
RAPID CITY     FAIR      58  52  80 NW6       29.92F
$$

REGIONAL REPORTS...WYOMING/IDAHO/WASHINGTON

CITY           SKY/WX    TMP DP  RH WIND       PRES   REMARKS
GILLETTE       FAIR      51  48  89 S8        30.00R
SHERIDAN       MOCLDY    55  51  86 W5        29.99S
BUFFALO WY     FAIR      60  46  59 W7        30.05R
CODY           FAIR      58  43  57 W3        30.09S
IDAHO FALLS    FAIR      49  47  93 CALM      30.09F
SALMON         FAIR      51  49  92 CALM      30.10S
BOISE          FAIR      66  48  52 S3        29.92F
SPOKANE        FAIR      62  56  80 SE9       29.93F
$$

REGIONAL REPORTS...ALBERTA

CITY           SKY/WX    TMP DP  RH WIND       PRES   REMARKS
CALGARY        CLEAR     57  43  58 N3        29.88R
CARDSTON         N/A     63  43  48 W13G18      N/A
EDMONTON       CLEAR     57  54  88 W6        29.76R
FORT MCMURRAY  CLOUDY    64  54  68 W9        29.64S
HIGH LEVEL     CLEAR     59  55  88 VRB2      29.66R
LETHBRIDGE     CLEAR     63  43  48 W17G26    29.86R
LLOYDMINSTER   MOCLDY    57  55  94 NW9       29.67S
MEDICINE HAT   PTCLDY    57  50  77 SW7       29.78R
MILK RIVER       N/A     57  46  67 W14G20      N/A
PEACE RIVER    PTCLDY    54  45  71 W6        29.73R
PINCHER CREEK    N/A     59  45  58 W15G23    29.93R
WATERTON GATE    N/A     61  41  48 SW16G24     N/A
$$

REGIONAL REPORTS...SASKATCHEWAN

CITY           SKY/WX    TMP DP  RH WIND       PRES   REMARKS
CORONACH         N/A     61  52  72 SW12        N/A
CYPRESS HILLS    N/A     59  41  51 NW10        N/A
ESTEVAN        PTCLDY    55  54  94 SW10      29.70S
MOOSE JAW        N/A     54  48  82 S5          N/A
PRINCE ALBERT  PTCLDY    59  57  94 NE3       29.60F
REGINA         PTCLDY    57  55  94 VRB2      29.69R
ROCKGLEN         N/A     63  50  63 SW18        N/A
SASKATOON      PTCLDY    55  54  94 W6        29.64R
SWIFT CURRENT  CLEAR     55  48  76 W12       29.70R
VAL MARIE        N/A     64  45  48 W18         N/A
$$



USA.gov is the U.S. government's official web portal to all federal, state and local government web resources and services.